Вернуться в каталог

COSMOS 1275 DEB

АктивенPO
NORAD 12746·DEBRIS·🇷🇺 Russia

Запущен Jun 4, 1981 с Plesetsk Cosmodrome

Loading…

Ближайшие Пролёты (ближайшие 24 часа)

TLE

СвежийSource: Space-Track

Эпоха: Sep 13, 2026, 13:29 UTC

1 12746U 81053CP  26256.56230640  .00002098  00000-0  78212-3 0  9996
2 12746  82.9325  81.0884 0036543 355.7536   4.3335 14.31226209299700

Отслеживайте COSMOS 1275 DEB в реальном времени с AllMySat

Download on the App Store